Date String (YYYY-MM-DD hh:mm:ss) UTC,Instrument flags,Ambient pressure (hPa),Sample flow (lpm),Bypass flow (lpm),Sample temperature (°C),Ambient temperature (°C),ASC tube jacket temperature (°C),LED temperature (°C),Box temperature (°C),Sample RH (%),Span deviation,Mass concentration (μg/m³),Mass concentration (μg/m³),Mass concentration (μg/m³)
DateTimeUTC,F1_M11,P_M11,Q1_M11,Q2_M11,T1_M11,T2_M11,T3_M11,T4_M11,T5_M11,U1_M11,ZSPAN_M11,X0_M11,X2_M11,X1_M11
2022-11-18 18:00:00,,0831.2,5.00,0.00,23.0,21.8,00.0,31.9,24.8,07.6,0000.0,0008.87,0006.55,0006.20
2022-11-18 18:01:00,,0831.2,5.00,0.00,23.1,21.8,00.0,31.9,24.9,07.6,0000.0,0008.89,0006.58,0006.21
2022-11-18 18:02:00,,0831.2,5.00,0.00,23.1,21.8,00.0,31.9,24.9,07.6,0000.0,0008.92,0006.63,0006.27
2022-11-18 18:03:00,,0831.2,5.00,0.00,23.1,21.9,00.0,31.9,24.9,07.7,0000.0,0009.10,0006.79,0006.39
2022-11-18 18:04:00,,0831.1,5.01,0.00,23.1,21.9,00.0,31.9,24.9,07.8,0000.0,0009.45,0007.07,0006.64
2022-11-18 18:05:00,,0831.1,4.99,0.00,23.1,21.9,00.0,31.9,24.9,07.8,0000.0,0009.94,0007.46,0007.01
2022-11-18 18:06:00,,0831.2,5.01,0.00,23.1,21.9,00.0,31.9,24.9,07.7,0000.0,0010.49,0007.79,0007.33
2022-11-18 18:07:00,,0831.2,5.00,0.00,23.1,21.9,00.0,31.9,24.9,07.7,0000.2,0011.04,0008.22,0007.69
2022-11-18 18:08:00,,0831.2,4.99,0.00,23.1,21.9,00.0,31.9,24.9,07.8,0003.1,0011.44,0008.55,0008.00
2022-11-18 18:09:00,,0831.2,5.00,0.00,23.1,21.9,00.0,31.9,24.9,07.8,0002.4,0011.63,0008.73,0008.21
2022-11-18 18:10:00,,0831.2,5.00,0.00,23.1,21.9,00.0,31.9,24.9,07.7,0002.6,0011.91,0008.91,0008.36
2022-11-18 18:11:00,,0831.2,5.01,0.00,23.1,21.9,00.0,32.0,24.9,07.7,0003.5,0012.19,0009.15,0008.60
2022-11-18 18:12:00,,0831.2,5.01,0.00,23.1,21.9,00.0,32.0,24.9,07.8,0003.4,0012.74,0009.58,0008.99
2022-11-18 18:13:00,,0831.2,4.99,0.00,23.1,21.9,00.0,32.0,24.9,07.8,0002.6,0013.24,0009.99,0009.36
2022-11-18 18:14:00,,0831.1,4.99,0.00,23.1,21.9,00.0,32.0,24.9,07.8,0003.1,0013.57,0010.30,0009.69
2022-11-18 18:15:00,,0831.0,5.01,0.00,23.1,21.9,00.0,32.0,24.9,07.8,0003.2,0013.68,0010.43,0009.86
2022-11-18 18:16:00,,0831.0,5.01,0.00,23.2,21.9,00.0,32.0,24.9,07.8,0002.7,0013.68,0010.48,0009.90
2022-11-18 18:17:00,,0831.0,5.00,0.00,23.2,21.9,00.0,32.0,25.0,07.8,0002.3,0013.68,0010.60,0010.01
2022-11-18 18:18:00,,0831.0,4.99,0.00,23.2,21.9,00.0,32.0,25.0,07.8,0001.9,0013.86,0010.66,0010.06
2022-11-18 18:19:00,,0831.0,5.00,0.00,23.2,21.9,00.0,32.0,24.9,07.8,0002.2,0014.06,0010.78,0010.17
2022-11-18 18:20:00,,0831.0,5.01,0.00,23.2,21.9,00.0,32.0,24.9,07.8,0003.0,0014.40,0011.01,0010.37
2022-11-18 18:21:00,,0831.0,5.00,0.00,23.2,22.0,00.0,32.0,25.0,07.8,0003.2,0014.66,0011.28,0010.64
2022-11-18 18:22:00,,0831.1,4.99,0.00,23.2,22.0,00.0,32.0,24.9,07.8,0002.8,0014.87,0011.48,0010.84
2022-11-18 18:23:00,,0831.0,5.00,0.00,23.2,22.0,00.0,32.0,24.9,07.8,0002.5,0014.73,0011.39,0010.79
2022-11-18 18:24:00,,0831.0,5.01,0.00,23.2,22.0,00.0,32.0,25.0,07.7,0002.9,0014.45,0011.22,0010.66
2022-11-18 18:25:00,,0830.9,5.01,0.00,23.2,22.0,00.0,32.0,24.9,07.7,0002.6,0014.43,0011.14,0010.58
2022-11-18 18:26:00,,0830.9,4.99,0.00,23.2,22.0,00.0,32.1,25.0,07.7,0002.2,0014.63,0011.12,0010.53
2022-11-18 18:27:00,,0830.9,4.99,0.00,23.2,22.0,00.0,32.1,25.0,07.7,0002.3,0015.30,0011.14,0010.53
2022-11-18 18:28:00,,0830.9,5.01,0.00,23.2,22.0,00.0,32.1,25.0,07.7,0002.4,0015.33,0011.16,0010.54
2022-11-18 18:29:00,,0830.9,5.01,0.00,23.2,22.0,00.0,32.1,25.0,07.7,0002.8,0015.80,0011.15,0010.55
2022-11-18 18:30:00,,0830.9,5.00,0.00,23.2,22.0,00.0,32.1,25.0,07.7,0003.3,0015.86,0011.06,0010.46
2022-11-18 18:31:00,,0830.9,5.00,0.00,23.2,22.0,00.0,32.1,25.0,07.7,0002.6,0015.65,0010.93,0010.34
2022-11-18 18:32:00,,0830.9,5.00,0.00,23.2,22.0,00.0,32.1,25.0,07.7,0001.5,0015.57,0010.85,0010.27
2022-11-18 18:33:00,,0830.9,4.99,0.00,23.2,22.0,00.0,32.1,25.0,07.7,0002.6,0015.58,0010.83,0010.23
2022-11-18 18:34:00,,0830.9,5.00,0.00,23.2,22.0,00.0,32.1,25.0,07.6,0003.3,0015.57,0010.82,0010.22
2022-11-18 18:35:00,,0830.9,5.01,0.00,23.3,22.1,00.0,32.1,25.0,07.6,0003.9,0015.57,0010.81,0010.21
2022-11-18 18:36:00,,0830.8,5.00,0.00,23.3,22.1,00.0,32.1,25.1,07.6,0004.0,0015.44,0010.69,0010.12
2022-11-18 18:37:00,,0830.8,4.98,0.00,23.3,22.1,00.0,32.1,25.0,07.6,0004.2,0015.15,0010.63,0010.08
2022-11-18 18:38:00,,0830.8,4.99,0.00,23.3,22.1,00.0,32.1,25.1,07.6,0004.1,0014.37,0010.57,0010.03
2022-11-18 18:39:00,,0830.7,5.01,0.00,23.3,22.1,00.0,32.1,25.1,07.6,0003.9,0014.41,0010.61,0010.07
2022-11-18 18:40:00,,0830.7,5.01,0.00,23.3,22.1,00.0,32.1,25.0,07.6,0003.6,0014.00,0010.66,0010.12
2022-11-18 18:41:00,,0830.7,4.99,0.00,23.3,22.1,00.0,32.2,25.1,07.6,0003.3,0013.83,0010.78,0010.27
2022-11-18 18:42:00,,0830.7,5.00,0.00,23.3,22.1,00.0,32.2,25.1,07.6,0003.2,0014.05,0010.94,0010.42
2022-11-18 18:43:00,,0830.7,4.99,0.00,23.3,22.1,00.0,32.2,25.1,07.5,0003.5,0014.26,0011.07,0010.53
2022-11-18 18:44:00,,0830.8,5.02,0.00,23.3,22.1,00.0,32.2,25.1,07.5,0003.4,0014.36,0011.14,0010.59
2022-11-18 18:45:00,,0830.8,5.01,0.00,23.3,22.1,00.0,32.2,25.1,07.5,0003.0,0014.41,0011.19,0010.65
2022-11-18 18:46:00,,0830.7,4.99,0.00,23.3,22.1,00.0,32.2,25.1,07.5,0001.8,0014.68,0011.28,0010.74
2022-11-18 18:47:00,,0830.6,4.99,0.00,23.4,22.1,00.0,32.2,25.1,07.5,0002.0,0014.88,0011.44,0010.86
2022-11-18 18:48:00,,0830.6,5.01,0.00,23.4,22.2,00.0,32.2,25.1,07.5,0002.1,0015.70,0011.53,0010.95
2022-11-18 18:49:00,,0830.6,5.01,0.00,23.4,22.2,00.0,32.2,25.1,07.5,0002.0,0015.96,0011.62,0011.03
2022-11-18 18:50:00,,0830.6,5.00,0.00,23.4,22.2,00.0,32.2,25.2,07.5,0002.3,0015.96,0011.62,0011.03
2022-11-18 18:51:00,,0830.6,5.01,0.00,23.4,22.2,00.0,32.2,25.2,07.5,0002.5,0015.89,0011.57,0010.98
2022-11-18 18:52:00,,0830.6,4.99,0.00,23.4,22.2,00.0,32.2,25.2,07.5,0002.4,0015.69,0011.50,0010.92
2022-11-18 18:53:00,,0830.6,5.00,0.00,23.4,22.2,00.0,32.2,25.2,07.5,0002.1,0015.62,0011.43,0010.87
2022-11-18 18:54:00,,0830.6,5.01,0.00,23.4,22.3,00.0,32.2,25.2,07.4,0002.1,0015.43,0011.33,0010.81
2022-11-18 18:55:00,,0830.6,5.01,0.00,23.4,22.3,00.0,32.3,25.2,07.4,0001.8,0015.31,0011.26,0010.75
2022-11-18 18:56:00,,0830.6,4.99,0.00,23.4,22.3,00.0,32.3,25.2,07.4,0001.5,0015.42,0011.26,0010.71
2022-11-18 18:57:00,,0830.6,5.00,0.00,23.5,22.3,00.0,32.3,25.2,07.4,0001.9,0015.36,0011.25,0010.66
2022-11-18 18:58:00,,0830.6,5.01,0.00,23.5,22.3,00.0,32.3,25.3,07.4,0001.7,0015.15,0011.16,0010.60
2022-11-18 18:59:00,,0830.6,5.01,0.00,23.5,22.3,00.0,32.3,25.3,07.4,0001.5,0014.32,0011.11,0010.53
